EW9532 Weather Reports


time (UTC)temp
C
wind
direction
speed
KPH
gust
KPH
rain 1hr
cm
rain 24hr
cm
rain mn
cm
humidity
%
barometer
mb
20260506222604 37 202 0.0 0.0 0.00 0.00 0.00 53 1005.9
20260506222103 38 161 0.0 0.0 0.00 0.00 0.00 50 1006.0
20260506221604 38 169 0.0 0.0 0.00 0.00 0.00 53 1006.1
20260506221551 38 0 0.0 0.0 0.00 0.00 0.00 52 1006.2
20260506221323 38 169 0.0 0.0 0.00 0.00 0.00 51 1006.1
20260506220828 38 169 0.0 1.6 0.00 0.00 0.00 52 1006.2
20260506220049 38 0 0.0 1.6 0.00 0.00 0.00 51 1006.5
20260506215601 38 79 0.0 1.6 0.00 0.00 0.00 52 1006.2
20260506215102 38 253 0.0 1.6 0.00 0.00 0.00 52 1006.2
20260506214602 38 253 0.0 1.6 0.00 0.00 0.00 52 1006.3
20260506214549 38 0 0.0 1.6 0.00 0.00 0.00 51 1006.5
20260506214101 38 244 0.0 1.6 0.00 0.00 0.00 52 1006.3
20260506214051 38 212 0.0 0.0 0.00 0.00 0.00 53 1006.3
20260506213102 38 170 0.0 1.6 0.00 0.00 0.00 52 1006.2
20260506213053 38 0 0.0 0.0 0.00 0.00 0.00 52 1006.5
20260506212604 38 170 0.0 1.6 0.00 0.00 0.00 53 1006.3
20260506212103 38 334 0.0 1.6 0.00 0.00 0.00 52 1006.4
20260506211825 38 155 0.0 1.6 0.00 0.00 0.00 51 1006.3
20260506211549 38 0 0.0 1.6 0.00 0.00 0.00 50 1006.6
20260506211116 38 142 0.0 1.6 0.00 0.00 0.00 51 1006.4
20260506210604 38 311 0.0 0.0 0.00 0.00 0.00 51 1006.4
20260506210110 38 122 0.0 1.6 0.00 0.00 0.00 52 1006.4
20260506210051 38 0 0.0 0.0 0.00 0.00 0.00 52 1006.7
20260506205604 38 122 0.0 1.6 0.00 0.00 0.00 52 1006.7
20260506205104 38 194 0.0 0.0 0.00 0.00 0.00 53 1006.7
20260506204602 37 194 0.0 0.0 0.00 0.00 0.00 52 1006.8
20260506204556 37 0 0.0 4.8 0.00 0.00 0.00 52 1007.0
20260506204321 37 105 0.0 4.8 0.00 0.00 0.00 52 1006.7
20260506203602 38 211 0.0 4.8 0.00 0.00 0.00 52 1006.9
20260506203327 38 321 0.0 0.0 0.00 0.00 0.00 55 1006.9
20260506203047 38 0 0.0 0.0 0.00 0.00 0.00 55 1007.1
20260506202604 37 321 0.0 0.0 0.00 0.00 0.00 52 1006.9
20260506202104 37 321 0.0 0.0 0.00 0.00 0.00 53 1007.0
20260506201604 37 290 0.0 0.0 0.00 0.00 0.00 52 1007.0
20260506201543 37 0 0.0 0.0 0.00 0.00 0.00 52 1007.3
20260506201334 37 152 0.0 0.0 0.00 0.00 0.00 53 1007.1
20260506200603 37 152 0.0 1.6 0.00 0.00 0.00 53 1007.1
20260506200107 37 0 0.0 1.6 0.00 0.00 0.00 55 1007.5
20260506200104 37 152 0.0 1.6 0.00 0.00 0.00 55 1007.1
20260506195603 37 139 0.0 1.6 0.00 0.00 0.00 55 1007.2
20260506195121 37 252 0.0 0.0 0.00 0.00 0.00 57 1007.3
20260506194603 37 174 0.0 1.6 0.00 0.00 0.00 54 1007.4
20260506194558 37 0 0.0 1.6 0.00 0.00 0.00 53 1007.6
20260506194103 37 174 0.0 1.6 0.00 0.00 0.00 54 1007.5
20260506193603 37 229 0.0 1.6 0.00 0.00 0.00 56 1007.5
20260506193103 37 229 0.0 1.6 0.00 0.00 0.00 54 1007.7
20260506193052 37 0 0.0 1.6 0.00 0.00 0.00 53 1008.1
20260506192824 37 187 0.0 0.0 0.00 0.00 0.00 56 1007.9
20260506192117 36 187 0.0 0.0 0.00 0.00 0.00 56 1007.8
20260506191604 36 167 0.0 0.0 0.00 0.00 0.00 57 1007.8
20260506191547 36 0 0.0 0.0 0.00 0.00 0.00 58 1008.1
20260506191117 36 167 0.0 0.0 0.00 0.00 0.00 59 1007.8
20260506190603 35 167 0.0 0.0 0.00 0.00 0.00 59 1008.0
20260506190107 35 167 0.0 0.0 0.00 0.00 0.00 60 1008.1
20260506190053 35 0 0.0 1.6 0.00 0.00 0.00 59 1008.4
20260506185602 35 167 0.0 1.6 0.00 0.00 0.00 62 1008.2
20260506185102 35 167 0.0 9.7 0.00 0.00 0.00 61 1008.2
20260506184602 34 127 0.0 9.7 0.00 0.00 0.00 64 1008.2
20260506184545 34 0 0.0 8.0 0.00 0.00 0.00 64 1008.5
20260506184102 35 311 0.0 8.0 0.00 0.00 0.00 61 1008.3
20260506183602 34 255 0.0 4.8 0.00 0.00 0.00 62 1008.3
20260506183102 34 0 0.0 4.8 0.00 0.00 0.00 62 1008.7
20260506182602 35 31 0.0 3.2 0.00 0.00 0.00 63 1008.4
20260506182104 34 212 0.0 9.7 0.00 0.00 0.00 62 1008.6
20260506181604 34 15 1.6 9.7 0.00 0.00 0.00 62 1008.7
20260506181557 34 0 0.0 9.7 0.00 0.00 0.00 62 1008.9
20260506181104 34 60 0.0 8.0 0.00 0.00 0.00 63 1008.6
20260506180603 33 39 1.6 8.0 0.00 0.00 0.00 64 1008.5
20260506180116 33 329 0.0 9.7 0.00 0.00 0.00 65 1008.7
20260506180051 33 0 0.0 9.7 0.00 0.00 0.00 64 1009.0
20260506175603 33 191 0.0 9.7 0.00 0.00 0.00 65 1008.6
20260506175105 33 233 0.0 6.4 0.00 0.00 0.00 66 1008.7
20260506174603 33 319 1.6 12.9 0.00 0.00 0.00 65 1008.8
20260506174547 32 0 0.0 11.3 0.00 0.00 0.00 65 1009.1
20260506174103 33 61 1.6 12.9 0.00 0.00 0.00 66 1008.8
20260506173823 33 335 0.0 3.2 0.00 0.00 0.00 68 1008.8
20260506173544 32 258 0.0 3.2 0.00 0.00 0.00 69 1008.9
20260506173053 32 0 0.0 1.6 0.00 0.00 0.00 69 1009.2
20260506172601 32 295 0.0 6.4 0.00 0.00 0.00 70 1008.9
20260506172102 32 295 0.0 6.4 0.00 0.00 0.00 70 1008.9
20260506171602 32 353 0.0 8.0 0.00 0.00 0.00 70 1008.9
20260506171550 32 0 0.0 8.0 0.00 0.00 0.00 69 1009.2
20260506171102 32 108 1.6 8.0 0.00 0.00 0.00 71 1008.9
20260506170602 32 184 0.0 6.4 0.00 0.00 0.00 70 1009.1
20260506170050 31 355 0.0 12.9 0.00 0.00 0.00 72 1009.4
20260506165823 31 342 0.0 14.5 0.00 0.00 0.00 73 1009.0
20260506165102 31 134 1.6 14.5 0.00 0.00 0.00 73 1009.1
20260506164602 31 266 1.6 9.7 0.00 0.00 0.00 72 1009.1
20260506164555 31 138 0.0 11.3 0.00 0.00 0.00 71 1009.5
20260506164102 31 4 0.0 6.4 0.00 0.00 0.00 73 1009.1
20260506163602 31 270 0.0 8.0 0.00 0.00 0.00 73 1009.0
20260506163102 31 317 0.0 11.3 0.00 0.00 0.00 74 1009.1
20260506163054 31 0 0.0 14.5 0.00 0.00 0.00 73 1009.4
20260506162601 30 198 1.6 11.3 0.00 0.00 0.00 75 1008.9
20260506162102 30 200 1.6 11.3 0.00 0.00 0.00 74 1009.0
20260506161616 30 184 1.6 11.3 0.00 0.00 0.00 73 1009.0
20260506161603 30 184 0.0 11.3 0.00 0.00 0.00 73 1009.3
20260506161555 30 305 0.0 11.3 0.00 0.00 0.00 74 1008.9
20260506160603 30 9 1.6 11.3 0.00 0.00 0.00 74 1008.9
20260506160116 30 220 0.0 6.4 0.00 0.00 0.00 74 1008.8
20260506160055 30 0 0.0 6.4 0.00 0.00 0.00 73 1009.2
20260506155601 30 327 0.0 6.4 0.00 0.00 0.00 74 1009.0
20260506155103 30 301 0.0 9.7 0.00 0.00 0.00 76 1008.9
20260506154603 30 208 0.0 9.7 0.00 0.00 0.00 76 1009.0
20260506154554 30 0 0.0 8.0 0.00 0.00 0.00 74 1009.3
20260506154102 30 2 0.0 9.7 0.00 0.00 0.00 75 1008.9
20260506153602 30 337 0.0 4.8 0.00 0.00 0.00 76 1008.9
20260506153334 30 227 1.6 11.3 0.00 0.00 0.00 76 1008.8
20260506153051 30 0 0.0 9.7 0.00 0.00 0.00 75 1009.0
20260506152601 30 354 1.6 11.3 0.00 0.00 0.00 75 1008.8
20260506152102 30 311 0.0 3.2 0.00 0.00 0.00 76 1008.9
20260506151604 30 283 0.0 3.2 0.00 0.00 0.00 77 1008.8
20260506151100 29 169 0.0 3.2 0.00 0.00 0.00 78 1008.9
20260506150818 29 70 0.0 9.7 0.00 0.00 0.00 78 1008.9
20260506150049 29 321 0.0 9.7 0.00 0.00 0.00 79 1009.0
20260506145536 29 60 0.0 6.4 0.00 0.00 0.00 79 1009.0
20260506145032 28 337 0.0 6.4 0.00 0.00 0.00 79 1009.1
20260506144548 28 295 0.0 6.4 0.00 0.00 0.00 79 1009.4
20260506144532 28 186 0.0 6.4 0.00 0.00 0.00 80 1009.1
20260506144020 28 91 0.0 6.4 0.00 0.00 0.00 81 1009.0
20260506143510 28 284 0.0 3.2 0.00 0.00 0.00 81 1009.2
20260506143227 27 211 0.0 3.2 0.00 0.00 0.00 83 1009.3
20260506143054 27 0 0.0 3.2 0.00 0.00 0.00 82 1009.6
20260506142505 27 10 0.0 1.6 0.00 0.00 0.00 83 1009.3
20260506142004 27 43 0.0 6.4 0.00 0.00 0.00 84 1009.4
20260506141550 27 0 0.0 4.8 0.00 0.00 0.00 83 1009.7
20260506141504 27 242 0.0 6.4 0.00 0.00 0.00 84 1009.4
20260506141227 27 256 0.0 9.7 0.00 0.00 0.00 84 1009.4
20260506140503 27 130 0.0 9.7 0.00 0.00 0.00 84 1009.4
20260506140103 26 211 0.0 3.2 0.00 0.00 0.00 83 1009.6
20260506140003 27 262 0.0 3.2 0.00 0.00 0.00 84 1009.4
20260506135502 27 156 0.0 3.2 0.00 0.00 0.00 84 1009.4
20260506135000 27 156 0.0 3.2 0.00 0.00 0.00 83 1009.3
20260506134545 26 0 0.0 11.3 0.00 0.00 0.00 83 1009.6
20260506134501 27 191 0.0 4.8 0.00 0.00 0.00 84 1009.3
20260506134001 27 191 0.0 12.9 0.00 0.00 0.00 84 1009.2
20260506133501 27 228 0.0 12.9 0.00 0.00 0.00 84 1009.3
20260506133053 26 0 0.0 4.8 0.00 0.00 0.00 84 1009.6
20260506133001 26 172 0.0 3.2 0.00 0.00 0.00 85 1009.3
20260506132501 26 241 0.0 3.2 0.00 0.00 0.00 85 1009.3
20260506132000 26 44 0.0 3.2 0.00 0.00 0.00 86 1009.3
20260506131552 26 0 0.0 4.8 0.00 0.00 0.00 85 1009.7
20260506131503 26 44 0.0 3.2 0.00 0.00 0.00 86 1009.3
20260506130958 26 160 0.0 4.8 0.00 0.00 0.00 86 1009.4
20260506130457 26 256 0.0 4.8 0.00 0.00 0.00 86 1009.2
20260506130110 26 0 0.0 1.6 0.00 0.00 0.00 86 1009.4
20260506125957 26 354 0.0 1.6 0.00 0.00 0.00 86 1009.1
20260506125451 26 354 0.0 1.6 0.00 0.00 0.00 86 1009.0
20260506124949 26 294 0.0 1.6 0.00 0.00 0.00 86 1009.0
20260506124550 26 0 0.0 4.8 0.00 0.00 0.00 86 1009.1
20260506124442 26 235 0.0 6.4 0.00 0.00 0.00 86 1008.9
20260506123935 26 235 0.0 8.0 0.00 0.00 0.00 86 1008.9
20260506123435 26 190 0.0 9.7 0.00 0.00 0.00 86 1008.8
20260506123157 26 201 1.6 8.0 0.00 0.00 0.00 86 1008.7
20260506123052 26 0 1.6 9.7 0.00 0.00 0.00 85 1008.9
20260506122433 26 323 0.0 3.2 0.00 0.00 0.00 86 1008.6
20260506121929 26 248 0.0 8.0 0.00 0.00 0.00 86 1008.5
20260506121551 26 0 0.0 6.4 0.00 0.00 0.00 86 1008.6
20260506121430 26 309 0.0 8.0 0.00 0.00 0.00 86 1008.3
20260506121149 26 139 0.0 4.8 0.00 0.00 0.00 86 1008.1
20260506120429 26 283 0.0 3.2 0.00 0.00 0.00 86 1008.0
20260506120053 26 0 0.0 3.2 0.00 0.00 0.00 86 1008.2
20260506115928 26 283 0.0 3.2 0.00 0.00 0.00 86 1007.9
20260506115428 26 351 0.0 0.0 0.00 0.00 0.00 87 1007.8
20260506114928 26 351 0.0 0.0 0.00 0.00 0.00 87 1007.8
20260506114716 26 351 0.0 1.6 0.00 0.00 0.00 87 1007.9
20260506114553 26 0 0.0 3.2 0.00 0.00 0.00 86 1008.0
20260506113929 26 351 0.0 6.4 0.00 0.00 0.00 87 1007.6
20260506113428 26 139 0.0 6.4 0.00 0.00 0.00 87 1007.6
20260506113047 26 0 0.0 4.8 0.00 0.00 0.00 86 1007.8
20260506112929 26 316 0.0 3.2 0.00 0.00 0.00 87 1007.5
20260506112429 26 90 0.0 0.0 0.00 0.00 0.00 87 1007.5
20260506111929 26 90 0.0 0.0 0.00 0.00 0.00 87 1007.4
20260506111911 26 90 0.0 0.0 0.00 0.00 0.00 87 1007.4
20260506111550 26 0 0.0 0.0 0.00 0.00 0.00 86 1007.7
20260506110930 26 43 0.0 0.0 0.00 0.00 0.00 86 1007.4
20260506110430 26 43 0.0 1.6 0.00 0.00 0.00 86 1007.4
20260506110100 26 0 0.0 1.6 0.00 0.00 0.00 86 1007.6
20260506105931 26 43 0.0 1.6 0.00 0.00 0.00 86 1007.3
20260506105430 26 158 0.0 1.6 0.00 0.00 0.00 86 1007.2
20260506104928 26 237 0.0 6.4 0.00 0.00 0.00 86 1007.1
20260506104558 26 0 0.0 4.8 0.00 0.00 0.00 86 1007.4
20260506104430 26 281 0.0 6.4 0.00 0.00 0.00 86 1007.0
20260506103929 26 139 0.0 4.8 0.00 0.00 0.00 86 1007.0
20260506103429 26 195 0.0 0.0 0.00 0.00 0.00 86 1007.0
20260506103051 26 0 0.0 0.0 0.00 0.00 0.00 85 1007.2
20260506102928 26 195 0.0 0.0 0.00 0.00 0.00 86 1006.9
20260506102653 26 195 0.0 4.8 0.00 0.00 0.00 86 1006.8
20260506101929 26 195 0.0 4.8 0.00 0.00 0.00 86 1006.8
20260506101556 26 0 0.0 6.4 0.00 0.00 0.00 85 1006.9
20260506101430 26 146 0.0 0.0 0.00 0.00 0.00 86 1006.7
20260506100929 26 157 0.0 8.0 0.00 0.00 0.00 86 1006.7
20260506100523 26 27 0.0 9.7 0.00 0.00 0.00 85 1006.5
20260506100445 26 326 0.0 8.0 0.00 0.00 0.00 85 1006.5
20260506100050 26 0 0.0 8.0 0.00 0.00 0.00 85 1007.0
20260506095429 26 27 0.0 9.7 0.00 0.00 0.00 85 1006.6
20260506095154 26 84 0.0 9.7 0.00 0.00 0.00 85 1006.5
20260506094557 26 0 0.0 11.3 0.00 0.00 0.00 84 1006.8
20260506094431 26 146 0.0 9.7 0.00 0.00 0.00 85 1006.5
20260506093923 26 316 1.6 9.7 0.00 0.00 0.00 85 1006.6
20260506093423 26 4 1.6 11.3 0.00 0.00 0.00 85 1006.6
20260506093055 26 0 0.0 11.3 0.00 0.00 0.00 84 1006.8
20260506092921 26 297 0.0 11.3 0.00 0.00 0.00 85 1006.6
20260506092420 26 299 0.0 12.9 0.00 0.00 0.00 85 1006.6
20260506091920 26 46 1.6 12.9 0.00 0.00 0.00 85 1006.6
20260506091548 26 0 1.6 14.5 0.00 0.00 0.00 85 1006.8
20260506091418 26 8 1.6 9.7 0.00 0.00 0.00 85 1006.7
20260506090917 26 124 1.6 9.7 0.00 0.00 0.00 85 1006.6
20260506090412 26 138 0.0 14.5 0.00 0.00 0.00 85 1006.7
20260506090052 26 267 1.6 14.5 0.00 0.00 0.00 85 1007.0
20260506085912 26 313 3.2 14.5 0.00 0.00 0.00 85 1006.7
20260506085407 26 247 1.6 12.9 0.00 0.00 0.00 85 1006.7
20260506084906 26 221 1.6 12.9 0.00 0.00 0.00 85 1006.8
20260506084553 26 346 1.6 14.5 0.00 0.00 0.00 84 1007.1
20260506084403 26 39 0.0 11.3 0.00 0.00 0.00 85 1006.7
20260506083903 26 219 1.6 12.9 0.00 0.00 0.00 85 1006.7
20260506083403 26 231 1.6 14.5 0.00 0.00 0.00 85 1006.9
20260506083051 26 314 1.6 17.7 0.00 0.00 0.00 85 1007.1
20260506082902 26 323 3.2 17.7 0.00 0.00 0.00 85 1006.9
20260506082402 26 197 3.2 17.7 0.00 0.00 0.00 85 1007.0
20260506082124 26 272 1.6 17.7 0.00 0.00 0.00 85 1007.0
20260506081625 26 251 1.6 17.7 0.00 0.00 0.00 85 1007.1
20260506081549 26 39 0.0 17.7 0.00 0.00 0.00 85 1007.3
20260506080901 26 248 1.6 17.7 0.00 0.00 0.00 86 1007.1
20260506080402 26 214 0.0 17.7 0.00 0.00 0.00 86 1007.0
20260506073402 26 259 1.6 14.5 0.00 0.00 0.00 86 1007.3
20260506073050 26 331 1.6 12.9 0.00 0.00 0.00 86 1007.6
20260506072903 26 352 1.6 14.5 0.00 0.00 0.00 86 1007.3
20260506072626 26 265 0.0 9.7 0.00 0.00 0.00 86 1007.3
20260506071902 26 192 0.0 14.5 0.00 0.00 0.00 86 1007.4
20260506071613 26 45 0.0 19.3 0.00 0.00 0.00 86 1007.6
20260506071606 26 0 1.6 17.7 0.00 0.00 0.00 85 1007.7
20260506071559 26 310 3.2 17.7 0.00 0.00 0.00 86 1007.5
20260506070402 26 49 3.2 19.3 0.00 0.00 0.00 86 1007.6
20260506070132 26 231 0.0 16.1 0.00 0.00 0.00 86 1007.6
20260506062402 26 158 1.6 12.9 0.00 0.00 0.00 85 1008.0
20260506061902 26 76 0.0 11.3 0.00 0.00 0.00 85 1008.0
20260506061553 26 179 1.6 14.5 0.00 0.00 0.00 85 1008.2
20260506061401 26 331 1.6 12.9 0.00 0.00 0.00 85 1008.0
20260506060901 26 245 3.2 12.9 0.00 0.00 0.00 85 1008.2
20260506060402 26 141 1.6 14.5 0.00 0.00 0.00 85 1008.1
20260506051402 27 217 1.6 12.9 0.00 0.00 0.00 84 1008.4
20260506050903 27 304 0.0 12.9 0.00 0.00 0.00 84 1008.4
20260506050402 27 88 0.0 8.0 0.00 0.00 0.00 84 1008.5
20260506044902 27 217 1.6 14.5 0.00 0.00 0.00 83 1008.6
20260506044555 26 0 0.0 14.5 0.00 0.00 0.00 83 1008.9
20260506044401 27 81 1.6 16.1 0.00 0.00 0.00 83 1008.6
20260506043902 27 250 1.6 16.1 0.00 0.00 0.00 83 1008.6
20260506043401 27 290 1.6 9.7 0.00 0.00 0.00 83 1008.6
20260506043050 27 0 0.0 12.9 0.00 0.00 0.00 82 1008.9
20260506042901 27 205 0.0 12.9 0.00 0.00 0.00 83 1008.5
20260506042401 27 165 3.2 14.5 0.00 0.00 0.00 83 1008.7
20260506041901 27 63 1.6 14.5 0.00 0.00 0.00 83 1008.7
20260506041603 27 0 3.2 16.1 0.00 0.00 0.00 82 1008.9
20260506041400 27 69 3.2 11.3 0.00 0.00 0.00 83 1008.7
20260506040902 27 13 0.0 11.3 0.00 0.00 0.00 83 1008.6
20260506040403 27 354 0.0 14.5 0.00 0.00 0.00 82 1008.6
20260506040050 27 68 1.6 16.1 0.00 0.00 0.00 82 1008.9
20260506035903 27 326 1.6 14.5 0.00 0.00 0.00 82 1008.6
20260506035402 27 288 1.6 11.3 0.00 0.00 0.00 82 1008.4
20260506034901 27 118 1.6 12.9 0.00 0.00 0.00 82 1008.3
20260506034547 27 0 0.0 16.1 0.00 0.00 0.00 81 1008.6
20260506034400 27 160 3.2 12.9 0.00 0.00 0.00 82 1008.4
20260506033901 27 271 3.2 17.7 0.00 0.00 0.00 82 1008.3
20260506033401 27 72 0.0 17.7 0.00 0.00 0.00 82 1008.1
20260506033058 27 187 1.6 16.1 0.00 0.00 0.00 81 1008.3
20260506032901 27 234 3.2 14.5 0.00 0.00 0.00 82 1008.1
20260506032842 27 212 6.4 14.5 0.00 0.00 0.00 81 1008.0
20260506031901 27 296 1.6 17.7 0.00 0.00 0.00 82 1008.0
20260506031621 27 306 3.2 17.7 0.00 0.00 0.00 81 1008.0
20260506031554 27 30 4.8 17.7 0.00 0.00 0.00 81 1008.3
20260506030902 27 147 3.2 16.1 0.00 0.00 0.00 81 1008.0
20260506030649 27 167 4.8 16.1 0.00 0.00 0.00 81 1007.9
20260506030052 27 202 1.6 12.9 0.00 0.00 0.00 80 1008.0
20260506025902 27 94 0.0 14.5 0.00 0.00 0.00 81 1007.8
20260506025847 27 301 3.2 12.9 0.00 0.00 0.00 81 1007.7
20260506024902 27 181 1.6 12.9 0.00 0.00 0.00 81 1007.7
20260506024552 27 312 0.0 19.3 0.00 0.00 0.00 80 1007.9
20260506024401 27 202 1.6 20.9 0.00 0.00 0.00 81 1007.6
20260506023901 27 222 4.8 20.9 0.00 0.00 0.00 81 1007.5
20260506023401 27 108 3.2 17.7 0.00 0.00 0.00 81 1007.4
20260506023052 27 269 1.6 16.1 0.00 0.00 0.00 80 1007.7
20260506022902 27 24 1.6 14.5 0.00 0.00 0.00 80 1007.3
20260506022403 27 147 3.2 14.5 0.00 0.00 0.00 80 1007.4
20260506021902 27 311 0.0 14.5 0.00 0.00 0.00 80 1007.3
20260506021545 27 0 1.6 12.9 0.00 0.00 0.00 79 1007.4
20260506021401 27 143 0.0 14.5 0.00 0.00 0.00 80 1007.2
20260506020902 27 309 0.0 14.5 0.00 0.00 0.00 80 1007.2
20260506020403 27 328 3.2 14.5 0.00 0.00 0.00 80 1007.0
20260506020052 27 105 1.6 16.1 0.00 0.00 0.00 79 1007.2
20260506015902 27 254 1.6 12.9 0.00 0.00 0.00 79 1006.9
20260506015403 27 148 1.6 19.3 0.00 0.00 0.00 79 1006.7
20260506014902 28 307 1.6 19.3 0.00 0.00 0.00 79 1006.7
20260506014557 27 58 0.0 14.5 0.00 0.00 0.00 78 1006.9
20260506014402 28 200 1.6 12.9 0.00 0.00 0.00 78 1006.7
20260506014120 28 49 0.0 14.5 0.00 0.00 0.00 78 1006.7
20260506013403 28 218 1.6 19.3 0.00 0.00 0.00 78 1006.6
20260506013055 27 248 4.8 19.3 0.00 0.00 0.00 77 1006.9
20260506012903 28 331 6.4 19.3 0.00 0.00 0.00 78 1006.6
20260506012403 28 354 1.6 19.3 0.00 0.00 0.00 77 1006.6
20260506011903 28 95 3.2 19.3 0.00 0.00 0.00 77 1006.3
20260506011548 28 323 1.6 19.3 0.00 0.00 0.00 77 1006.6
20260506011402 28 290 1.6 12.9 0.00 0.00 0.00 77 1006.3
20260506010902 28 328 1.6 12.9 0.00 0.00 0.00 77 1006.2
20260506010402 28 11 0.0 14.5 0.00 0.00 0.00 77 1006.1
20260506010048 28 105 1.6 17.7 0.00 0.00 0.00 76 1006.2
20260506005902 28 354 1.6 19.3 0.00 0.00 0.00 76 1006.1
20260506005402 28 177 1.6 19.3 0.00 0.00 0.00 76 1006.0
20260506004902 28 358 3.2 20.9 0.00 0.00 0.00 75 1006.0
20260506004555 28 153 3.2 20.9 0.00 0.00 0.00 74 1006.3
20260506004402 29 263 3.2 20.9 0.00 0.00 0.00 74 1006.0
20260506004123 29 44 1.6 14.5 0.00 0.00 0.00 74 1005.9
20260506003846 29 313 1.6 14.5 0.00 0.00 0.00 74 1005.9
20260506003128 30 195 1.6 14.5 0.00 0.00 0.00 73 1005.8
20260506003050 29 292 1.6 17.7 0.00 0.00 0.00 73 1006.1
20260506002403 30 352 3.2 14.5 0.00 0.00 0.00 73 1005.8
20260506001902 30 165 6.4 16.1 0.00 0.00 0.00 72 1005.6
20260506001609 30 219 1.6 20.9 0.00 0.00 0.00 71 1005.9
20260506001401 30 223 3.2 20.9 0.00 0.00 0.00 71 1005.5
20260506000900 30 261 6.4 20.9 0.00 0.00 0.00 71 1005.4
20260506000401 30 174 3.2 11.3 0.00 0.00 0.00 70 1005.4
20260506000055 30 233 1.6 17.7 0.00 0.00 0.00 69 1005.8
20260505235901 31 111 3.2 17.7 0.00 0.00 0.00 69 1005.4
20260505235401 31 280 1.6 17.7 0.00 0.00 0.00 68 1005.4
20260505234901 31 139 4.8 16.1 0.00 0.00 0.00 68 1005.2
20260505234553 31 239 1.6 11.3 0.00 0.00 0.00 67 1005.5
20260505234401 31 105 3.2 11.3 0.00 0.00 0.00 68 1005.3
20260505233900 31 134 0.0 11.3 0.00 0.00 0.00 67 1005.3
20260505233403 31 181 3.2 16.1 0.00 0.00 0.00 67 1005.3
20260505233056 31 248 1.6 17.7 0.00 0.00 0.00 66 1005.5
20260505232901 31 214 3.2 19.3 0.00 0.00 0.00 67 1005.1
20260505232401 31 109 4.8 19.3 0.00 0.00 0.00 67 1005.2
20260505231901 31 33 3.2 19.3 0.00 0.00 0.00 67 1005.1
20260505231553 31 16 6.4 17.7 0.00 0.00 0.00 66 1005.4
20260505231400 31 20 9.7 16.1 0.00 0.00 0.00 67 1005.3
20260505230901 31 135 3.2 16.1 0.00 0.00 0.00 66 1005.2
20260505230403 32 294 1.6 16.1 0.00 0.00 0.00 66 1005.3
20260505230056 31 271 1.6 17.7 0.00 0.00 0.00 65 1005.7
20260505225903 32 225 4.8 16.1 0.00 0.00 0.00 66 1005.3
20260505225401 32 322 3.2 14.5 0.00 0.00 0.00 65 1005.3
20260505224901 32 300 3.2 16.1 0.00 0.00 0.00 65 1005.2
20260505224633 32 355 6.4 16.1 0.00 0.00 0.00 65 1005.2
20260505224548 32 316 4.8 16.1 0.00 0.00 0.00 64 1005.6
20260505223900 33 207 1.6 14.5 0.00 0.00 0.00 65 1005.3
20260505223403 32 245 1.6 14.5 0.00 0.00 0.00 64 1005.4
20260505223058 32 198 4.8 17.7 0.00 0.00 0.00 64 1005.6
20260505222903 32 259 4.8 16.1 0.00 0.00 0.00 64 1005.5